Flag for Peru Weather past 2 weeks in Arequipa, Arequipa, Peru

Now
55 °F

Passing clouds.


Feels Like: 55 °F
Forecast: 55 / 66 °F
Wind: No wind

Location: Arequipa Airport

Current Time: Mar 4, 2015 at 11:09:19 PM

Latest Report: Mar 4, 2015 at 10:00 PM


Visibility: N/A

Pressure: 30.30 "Hg

Humidity: 82%

Dew point: 50 °F

Location of ArequipaLocation

Historic Weather in Arequipa — Graph

°F

Arequipa temperature yesterday

Maximum temperature yesterday: 64 °F (at 11:00 AM)
Minimum temperature yesterday: 54 °F (at 2:00 AM)
Average temperature yesterday: 57 °F

Past Weeks' High & Low Weather Summary

 TemperatureHumidityPressure
High68 °F (Feb 18, 10:00 AM)100% (Feb 18, 10:00 PM)30.39 "Hg (Feb 18, 10:00 PM)
Low46 °F (Feb 20, 2:00 AM)45% (Feb 20, 9:00 AM)29.71 "Hg (Mar 2, 9:00 AM)
Average57 °F81%30.28 "Hg
* Reported Feb 17 9:00 PM — Mar 4 9:00 PM, Arequipa, Weather by CustomWeather, © 2015

Note: Actual official high and low records may vary slightly from our data, if they occured in-between our weather recording intervals... More about our weather records

Advertising

Arequipa weather history for previous 24 hours

 ConditionsComfort  
Time TempWeatherWind HumidityBarometerVisibility
9:00 PM
Wed, Mar 4
57 °FPassing clouds.2 mph77%30.27 "HgN/A
8:00 PM57 °FPassing clouds.2 mph77%30.27 "HgN/A
7:00 PM57 °FPassing clouds.5 mph82%30.24 "HgN/A
6:00 PM59 °FBroken clouds.6 mph77%30.24 "HgN/A
5:00 PM61 °FPartly sunny.12 mph68%30.21 "HgN/A
4:00 PM64 °FPartly sunny.14 mph64%30.21 "HgN/A
3:00 PM66 °FPartly sunny.9 mph56%30.21 "HgN/A
2:00 PM66 °FPartly sunny.9 mph60%30.21 "HgN/A
1:00 PM66 °FPartly sunny.10 mph56%30.24 "HgN/A
12:00 PM68 °FScattered clouds.12 mph56%30.24 "HgN/A
11:00 AM68 °FScattered clouds.5 mph53%30.24 "HgN/A
10:00 AM66 °FScattered clouds.5 mph56%30.24 "HgN/A
9:00 AM63 °FPassing clouds.3 mph68%30.24 "HgN/A
8:00 AM61 °FPassing clouds.5 mph72%30.24 "HgN/A
7:00 AM55 °FSunny.No wind88%30.24 "Hg10 mi
6:00 AM52 °FScattered clouds.No wind94%30.21 "HgN/A
5:00 AM54 °FPassing clouds.3 mph94%30.18 "HgN/A
4:00 AM55 °FPartly cloudy.3 mph88%30.21 "HgN/A
3:00 AM55 °FPartly cloudy.No wind88%30.18 "HgN/A
2:00 AM55 °FPartly cloudy.No wind94%30.21 "HgN/A
1:00 AM55 °FPartly cloudy.No wind94%30.24 "HgN/A
12:00 AM55 °FPartly cloudy.No wind94%30.24 "HgN/A
11:00 PM
Tue, Mar 3
57 °FPartly cloudy.3 mph82%30.24 "HgN/A
Weather by CustomWeather, © 2015

See weather overviewHow to use our weather pages